Chippewa, MI

4:53 PM EDT on October 21, 2019 (GMT -0400)
Chippewa County International

Weather History for KCIU - August, 2019

Change the Weather History Date:

Tuesday, August 13, 2019

  Actual Average Record
Temperature  
Mean Temperature 65 °F -  
Max Temperature 72 °F 76 °F 88 °F (1978)
Min Temperature 59 °F 49 °F 33 °F (1992)
Growing Degree Days 15 (Base 50)    
Moisture  
Dew Point 52 °F    
Average Humidity 65    
Maximum Humidity 81    
Minimum Humidity 45    
Precipitation  
Precipitation 0.02 in - - ()
Sea Level Pressure  
Sea Level Pressure 29.91 in    
Wind  
Wind Speed 6 mph (NNW)    
Max Wind Speed 10 mph    
Max Gust Speed -    
Visibility 10 miles    
Events Rain    
Averages and records for this station are not official NWS values.
T = Trace of Precipitation, MM = Missing Value Source: NWS Daily Summary

Daily Weather History Graph

Daily Weather History Graph

Search for Another Location

Airport or City:

Astronomy

Aug. 13, 2019 Rise Set
Actual Time 6:34 AM EDT 8:50 PM EDT
Civil Twilight 6:00 AM EDT 9:23 PM EDT
Nautical Twilight 5:19 AM EDT 10:04 PM EDT
Astronomical Twilight 4:33 AM EDT 10:50 PM EDT
Moon 8:11 PM EDT (8/13) 4:27 AM EDT (8/13)
Length of Visible Light 15h 22m
Length of Day
14h 16m
Waxing Gibbous, 97% of the Moon is Illuminated
Aug 13
Waxing Gibbous
Aug 15
Full
Aug 23
Last Quarter
Aug 30
New
Sep 5
First Quarter

Hourly Weather History & Observations

Time (EDT) Temp. Dew Point Humidity Pressure Visibility Wind Dir Wind Speed Gust Speed Precip Events Conditions
12:56 AM 61.0 °F 53.1 °F 75% 29.86 in 10.0 mi NW 4.6 mph - N/A   Clear
1:56 AM 61.0 °F 53.1 °F 75% 29.86 in 10.0 mi West 4.6 mph - N/A   Clear
2:56 AM 61.0 °F 52.0 °F 72% 29.86 in 10.0 mi NNW 8.1 mph - N/A   Clear
3:56 AM 61.0 °F 52.0 °F 72% 29.86 in 10.0 mi West 3.5 mph - N/A   Clear
4:56 AM 61.0 °F 53.1 °F 75% 29.86 in 10.0 mi North 6.9 mph - N/A   Scattered Clouds
5:56 AM 61.0 °F 54.0 °F 78% 29.87 in 10.0 mi North 4.6 mph - N/A   Overcast
6:56 AM 62.1 °F 55.0 °F 78% 29.88 in 10.0 mi North 5.8 mph - N/A   Overcast
7:56 AM 63.0 °F 52.0 °F 67% 29.90 in 10.0 mi North 6.9 mph - N/A   Overcast
8:56 AM 64.0 °F 51.1 °F 63% 29.91 in 10.0 mi NE 6.9 mph - N/A   Overcast
9:56 AM 64.9 °F 51.1 °F 61% 29.92 in 10.0 mi ENE 8.1 mph - N/A   Overcast
10:56 AM 66.9 °F 51.1 °F 57% 29.91 in 10.0 mi ENE 6.9 mph - N/A   Overcast
11:56 AM 71.1 °F 50.0 °F 47% 29.92 in 10.0 mi East 8.1 mph - N/A   Overcast
12:56 PM 70.0 °F 48.9 °F 47% 29.93 in 10.0 mi Calm Calm - N/A   Overcast
1:56 PM 64.0 °F 55.9 °F 75% 29.94 in 10.0 mi SW 5.8 mph - 0.01 in Rain Rain
2:56 PM 68.0 °F 55.0 °F 63% 29.94 in 10.0 mi West 4.6 mph - 0.01 in   Mostly Cloudy
3:56 PM 70.0 °F 53.1 °F 55% 29.93 in 10.0 mi Variable 4.6 mph - N/A   Mostly Cloudy
4:56 PM 71.1 °F 54.0 °F 55% 29.92 in 10.0 mi North 8.1 mph - N/A   Overcast
5:56 PM 71.1 °F 54.0 °F 55% 29.93 in 10.0 mi North 8.1 mph - N/A   Overcast
6:56 PM 71.1 °F 48.9 °F 45% 29.93 in 10.0 mi North 9.2 mph - N/A   Overcast
7:56 PM 69.1 °F 48.0 °F 47% 29.93 in 10.0 mi NNW 10.4 mph - N/A   Partly Cloudy
8:56 PM 64.0 °F 52.0 °F 65% 29.95 in 10.0 mi NNW 8.1 mph - N/A   Clear
9:56 PM 61.0 °F 54.0 °F 78% 29.96 in 10.0 mi NNW 8.1 mph - N/A   Clear
10:56 PM 59.0 °F 53.1 °F 81% 29.97 in 10.0 mi NNW 9.2 mph - N/A   Clear
11:56 PM 59.0 °F 53.1 °F 81% 29.97 in 10.0 mi North 6.9 mph - N/A   Clear